Simultaneous Nadir Overpasses (SNOs) Predictions

Prediction of SNOs between METOP-B and TERRA Satellite Orbit:

Table of predicted SNOs for the next 14.0 days since TLE Epoch: 8/10/2019
Index Date (METOP-B) Time (METOP-B) Lat,Lon (METOP-B) SZA (METOP-B ) Date (TERRA) Time (TERRA) Lat,Lon (TERRA) SZA (TERRA ) Distance(km) Time Diff (sec)
1 08/11/2019 20:52:41 81.31, -85.98 68.87 08/11/2019 20:53:34 81.32, -85.96 68.91 0.89 53
2 08/11/2019 21:43:21 -81.31, 81.53 111.10 08/11/2019 21:43:01 -81.31, 81.57 111.11 0.69 20
3 08/14/2019 16:27:03 81.31, -19.55 69.74 08/14/2019 16:27:49 81.31, -19.72 69.74 2.86 46
4 08/14/2019 17:17:42 -81.32, 148.39 110.18 08/14/2019 17:17:15 -81.32, 148.21 110.21 3.05 27
5 08/17/2019 12:01:24 81.31, 46.88 70.64 08/17/2019 12:02:02 81.31, 46.86 70.65 0.49 38
6 08/17/2019 12:52:04 -81.31,-145.54 109.33 08/17/2019 12:51:29 -81.31,-145.57 109.35 0.68 35
7 08/20/2019 07:35:46 81.31, 113.30 71.56 08/20/2019 07:36:16 81.32, 113.40 71.59 1.89 30
8 08/20/2019 08:26:26 -81.31, -79.08 108.40 08/20/2019 08:25:43 -81.32, -79.01 108.41 1.07 43
9 08/23/2019 03:10:09 81.31, 179.33 72.47 08/23/2019 03:10:31 81.30, 179.51 72.50 3.19 22




NCC Satellite Simultaneous Nadir Overpasses (SNOs) Prediction Service
